Time,TemperatureF,DewpointF,PressureIn,WindDirection,WindDirectionDegrees,WindSpeedMPH,WindSpeedGustMPH,Humidity,HourlyPrecipIn,Conditions,Clouds,dailyrainin,SoftwareType,DateUTC
2013-04-06 00:00:00,43.5,21.9,30.00,South,174,9.0,9.0,42,0.00,,,0.00,Wunderground v.1.15,2013-04-06 04:00:00,
2013-04-06 00:10:00,43.1,21.5,30.01,SE,139,10.0,11.0,42,0.00,,,0.00,Wunderground v.1.15,2013-04-06 04:10:00,
2013-04-06 00:15:00,42.8,21.3,30.01,SSW,197,8.0,11.0,42,0.00,,,0.00,Wunderground v.1.15,2013-04-06 04:15:00,
2013-04-06 00:20:00,42.5,21.0,30.01,SSW,193,7.0,11.0,42,0.00,,,0.00,Wunderground v.1.15,2013-04-06 04:20:00,
2013-04-06 00:25:00,42.3,20.8,30.01,SSE,148,7.0,11.0,42,0.00,,,0.00,Wunderground v.1.15,2013-04-06 04:25:00,
2013-04-06 00:30:00,42.2,20.7,30.01,SSE,159,8.0,8.0,42,0.00,,,0.00,Wunderground v.1.15,2013-04-06 04:30:00,
2013-04-06 00:35:00,42.0,21.1,30.02,South,169,8.0,11.0,43,0.00,,,0.00,Wunderground v.1.15,2013-04-06 04:35:00,
2013-04-06 00:40:00,41.9,21.0,30.02,SSE,148,9.0,10.0,43,0.00,,,0.00,Wunderground v.1.15,2013-04-06 04:40:00,
2013-04-06 00:45:00,41.9,21.0,30.02,SSE,165,10.0,10.0,43,0.00,,,0.00,Wunderground v.1.15,2013-04-06 04:45:00,
2013-04-06 00:50:00,41.8,20.9,30.02,SSE,155,9.0,12.0,43,0.00,,,0.00,Wunderground v.1.15,2013-04-06 04:50:00,
2013-04-06 00:55:00,41.6,20.7,30.03,South,170,8.0,12.0,43,0.00,,,0.00,Wunderground v.1.15,2013-04-06 04:55:00,
2013-04-06 01:00:00,41.4,21.1,30.04,SSE,159,6.0,6.0,44,0.00,,,0.00,Wunderground v.1.15,2013-04-06 05:00:00,
2013-04-06 01:10:00,41.0,20.7,30.04,SE,136,2.0,2.0,44,0.00,,,0.00,Wunderground v.1.15,2013-04-06 05:10:00,
2013-04-06 01:15:00,40.9,20.6,30.04,SE,134,2.0,3.0,44,0.00,,,0.00,Wunderground v.1.15,2013-04-06 05:15:00,
2013-04-06 01:20:00,40.9,21.2,30.04,South,183,3.0,7.0,45,0.00,,,0.00,Wunderground v.1.15,2013-04-06 05:20:00,
2013-04-06 01:30:00,40.7,21.0,30.04,ESE,119,7.0,8.0,45,0.00,,,0.00,Wunderground v.1.15,2013-04-06 05:30:00,
2013-04-06 01:35:00,40.6,20.9,30.05,South,169,6.0,8.0,45,0.00,,,0.00,Wunderground v.1.15,2013-04-06 05:35:00,
2013-04-06 01:50:00,40.1,21.5,30.05,SSE,163,7.0,8.0,47,0.00,,,0.00,Wunderground v.1.15,2013-04-06 05:50:00,
2013-04-06 01:55:00,40.0,21.4,30.05,SSE,150,8.0,8.0,47,0.00,,,0.00,Wunderground v.1.15,2013-04-06 05:55:00,
2013-04-06 02:00:00,39.8,21.7,30.05,SSE,167,7.0,10.0,48,0.00,,,0.00,Wunderground v.1.15,2013-04-06 06:00:00,
2013-04-06 02:10:00,39.6,21.5,30.06,SSE,155,6.0,7.0,48,0.00,,,0.00,Wunderground v.1.15,2013-04-06 06:10:00,
2013-04-06 02:15:00,39.5,21.4,30.06,SSE,150,6.0,7.0,48,0.00,,,0.00,Wunderground v.1.15,2013-04-06 06:15:00,
2013-04-06 02:25:00,39.2,21.1,30.06,SE,127,3.0,7.0,48,0.00,,,0.00,Wunderground v.1.15,2013-04-06 06:25:00,
2013-04-06 02:30:00,39.2,21.1,30.06,SSE,151,3.0,3.0,48,0.00,,,0.00,Wunderground v.1.15,2013-04-06 06:30:00,
2013-04-06 02:35:00,39.1,21.0,30.07,SE,134,4.0,4.0,48,0.00,,,0.00,Wunderground v.1.15,2013-04-06 06:35:00,
2013-04-06 02:40:00,39.0,20.9,30.07,SSE,158,5.0,5.0,48,0.00,,,0.00,Wunderground v.1.15,2013-04-06 06:40:00,
2013-04-06 02:45:00,38.9,20.9,30.07,SSE,151,5.0,7.0,48,0.00,,,0.00,Wunderground v.1.15,2013-04-06 06:45:00,
2013-04-06 02:55:00,38.8,20.8,30.07,SE,143,7.0,9.0,48,0.00,,,0.00,Wunderground v.1.15,2013-04-06 06:55:00,
2013-04-06 03:00:00,38.8,20.8,30.08,ESE,113,6.0,7.0,48,0.00,,,0.00,Wunderground v.1.15,2013-04-06 07:00:00,
2013-04-06 03:10:00,38.7,20.7,30.08,SE,140,6.0,6.0,48,0.00,,,0.00,Wunderground v.1.15,2013-04-06 07:10:00,
2013-04-06 03:15:00,38.5,21.0,30.08,SE,127,6.0,7.0,49,0.00,,,0.00,Wunderground v.1.15,2013-04-06 07:15:00,
2013-04-06 03:20:00,38.5,21.0,30.08,ESE,120,5.0,8.0,49,0.00,,,0.00,Wunderground v.1.15,2013-04-06 07:20:00,
2013-04-06 03:30:00,38.1,21.1,30.08,SE,131,6.0,6.0,50,0.00,,,0.00,Wunderground v.1.15,2013-04-06 07:30:00,
2013-04-06 03:35:00,38.0,21.0,30.08,SSE,148,5.0,7.0,50,0.00,,,0.00,Wunderground v.1.15,2013-04-06 07:35:00,
2013-04-06 03:40:00,37.9,20.9,30.08,SE,127,6.0,8.0,50,0.00,,,0.00,Wunderground v.1.15,2013-04-06 07:40:00,
2013-04-06 03:45:00,37.9,20.9,30.08,SE,143,6.0,8.0,50,0.00,,,0.00,Wunderground v.1.15,2013-04-06 07:45:00,
2013-04-06 03:50:00,37.7,21.2,30.08,SE,141,6.0,6.0,51,0.00,,,0.00,Wunderground v.1.15,2013-04-06 07:50:00,
2013-04-06 04:00:00,37.4,21.4,30.09,SSE,149,4.0,7.0,52,0.00,,,0.00,Wunderground v.1.15,2013-04-06 08:00:00,
2013-04-06 04:10:00,37.2,21.2,30.09,SSE,162,4.0,4.0,52,0.00,,,0.00,Wunderground v.1.15,2013-04-06 08:10:00,
2013-04-06 04:15:00,37.0,21.0,30.10,SE,143,4.0,5.0,52,0.00,,,0.00,Wunderground v.1.15,2013-04-06 08:15:00,
2013-04-06 04:20:00,36.9,20.9,30.10,SSE,159,3.0,7.0,52,0.00,,,0.00,Wunderground v.1.15,2013-04-06 08:20:00,
2013-04-06 04:25:00,36.8,21.3,30.10,SSE,159,3.0,7.0,53,0.00,,,0.00,Wunderground v.1.15,2013-04-06 08:25:00,
2013-04-06 04:30:00,36.7,21.2,30.10,SSE,152,3.0,7.0,53,0.00,,,0.00,Wunderground v.1.15,2013-04-06 08:30:00,
2013-04-06 04:35:00,36.7,21.6,30.11,South,173,4.0,7.0,54,0.00,,,0.00,Wunderground v.1.15,2013-04-06 08:35:00,
2013-04-06 04:40:00,36.5,21.4,30.11,SSE,162,4.0,4.0,54,0.00,,,0.00,Wunderground v.1.15,2013-04-06 08:40:00,
2013-04-06 04:45:00,36.4,21.8,30.11,South,169,5.0,6.0,55,0.00,,,0.00,Wunderground v.1.15,2013-04-06 08:45:00,
2013-04-06 04:50:00,36.4,21.8,30.11,SE,129,6.0,12.0,55,0.00,,,0.00,Wunderground v.1.15,2013-04-06 08:50:00,
2013-04-06 05:00:00,36.2,22.0,30.12,SSE,153,8.0,8.0,56,0.00,,,0.00,Wunderground v.1.15,2013-04-06 09:00:00,
2013-04-06 05:10:00,35.7,21.9,30.12,SSE,162,4.0,7.0,57,0.00,,,0.00,Wunderground v.1.15,2013-04-06 09:10:00,
2013-04-06 05:20:00,35.4,21.7,30.13,SSE,150,6.0,9.0,57,0.00,,,0.00,Wunderground v.1.15,2013-04-06 09:20:00,
2013-04-06 05:25:00,35.3,21.6,30.13,SSE,167,7.0,9.0,57,0.00,,,0.00,Wunderground v.1.15,2013-04-06 09:25:00,
2013-04-06 05:30:00,35.2,21.5,30.13,South,173,7.0,12.0,57,0.00,,,0.00,Wunderground v.1.15,2013-04-06 09:30:00,
2013-04-06 05:35:00,35.1,21.4,30.13,South,172,8.0,12.0,57,0.00,,,0.00,Wunderground v.1.15,2013-04-06 09:35:00,
2013-04-06 05:55:00,34.8,20.3,30.15,SSW,207,8.0,9.0,55,0.00,,,0.00,Wunderground v.1.15,2013-04-06 09:55:00,
2013-04-06 06:00:00,34.7,20.2,30.15,South,188,7.0,7.0,55,0.00,,,0.00,Wunderground v.1.15,2013-04-06 10:00:00,
2013-04-06 06:10:00,34.4,19.9,30.16,SSW,198,4.0,4.0,55,0.00,,,0.00,Wunderground v.1.15,2013-04-06 10:10:00,
2013-04-06 06:20:00,34.1,19.6,30.16,South,180,3.0,7.0,55,0.00,,,0.00,Wunderground v.1.15,2013-04-06 10:20:00,
2013-04-06 06:30:00,33.9,19.0,30.17,SSE,165,5.0,5.0,54,0.00,,,0.00,Wunderground v.1.15,2013-04-06 10:30:00,
2013-04-06 06:35:00,33.8,18.5,30.17,SSE,153,4.0,7.0,53,0.00,,,0.00,Wunderground v.1.15,2013-04-06 10:35:00,
2013-04-06 06:40:00,33.7,18.4,30.18,SSE,155,4.0,7.0,53,0.00,,,0.00,Wunderground v.1.15,2013-04-06 10:40:00,
2013-04-06 06:50:00,33.5,18.2,30.19,South,169,4.0,7.0,53,0.00,,,0.00,Wunderground v.1.15,2013-04-06 10:50:00,
2013-04-06 06:55:00,33.4,18.1,30.20,South,187,3.0,7.0,53,0.00,,,0.00,Wunderground v.1.15,2013-04-06 10:55:00,
2013-04-06 07:00:00,33.6,18.3,30.21,SSE,166,2.0,7.0,53,0.00,,,0.00,Wunderground v.1.15,2013-04-06 11:00:00,
2013-04-06 07:10:00,34.1,18.3,30.21,SSE,159,2.0,7.0,52,0.00,,,0.00,Wunderground v.1.15,2013-04-06 11:10:00,
2013-04-06 07:15:00,34.3,18.0,30.22,South,185,2.0,7.0,51,0.00,,,0.00,Wunderground v.1.15,2013-04-06 11:15:00,
2013-04-06 07:25:00,34.8,17.6,30.23,SSW,207,3.0,7.0,49,0.00,,,0.00,Wunderground v.1.15,2013-04-06 11:25:00,
2013-04-06 07:35:00,35.1,16.9,30.23,SSW,205,3.0,7.0,47,0.00,,,0.00,Wunderground v.1.15,2013-04-06 11:35:00,
2013-04-06 07:40:00,35.1,17.4,30.24,SSW,212,3.0,3.0,48,0.00,,,0.00,Wunderground v.1.15,2013-04-06 11:40:00,
2013-04-06 07:45:00,35.2,17.0,30.24,SSE,166,2.0,7.0,47,0.00,,,0.00,Wunderground v.1.15,2013-04-06 11:45:00,
2013-04-06 07:50:00,35.3,17.1,30.24,SSE,149,2.0,2.0,47,0.00,,,0.00,Wunderground v.1.15,2013-04-06 11:50:00,
2013-04-06 07:55:00,35.2,16.5,30.25,South,176,3.0,3.0,46,0.00,,,0.00,Wunderground v.1.15,2013-04-06 11:55:00,
2013-04-06 08:00:00,35.3,16.6,30.25,SSW,195,2.0,2.0,46,0.00,,,0.00,Wunderground v.1.15,2013-04-06 12:00:00,
2013-04-06 08:05:00,35.5,16.2,30.25,South,172,2.0,7.0,45,0.00,,,0.00,Wunderground v.1.15,2013-04-06 12:05:00,
2013-04-06 08:10:00,35.6,17.3,30.26,South,187,2.0,7.0,47,0.00,,,0.00,Wunderground v.1.15,2013-04-06 12:10:00,
2013-04-06 08:15:00,36.1,17.3,30.26,SSE,156,1.0,7.0,46,0.00,,,0.00,Wunderground v.1.15,2013-04-06 12:15:00,
2013-04-06 08:25:00,35.7,17.4,30.26,SSW,212,4.0,7.0,47,0.00,,,0.00,Wunderground v.1.15,2013-04-06 12:25:00,
2013-04-06 08:30:00,35.7,15.9,30.26,SSE,165,4.0,4.0,44,0.00,,,0.00,Wunderground v.1.15,2013-04-06 12:30:00,
2013-04-06 08:35:00,35.7,16.4,30.26,SSW,212,4.0,7.0,45,0.00,,,0.00,Wunderground v.1.15,2013-04-06 12:35:00,
2013-04-06 08:40:00,35.9,16.6,30.26,SSW,201,5.0,7.0,45,0.00,,,0.00,Wunderground v.1.15,2013-04-06 12:40:00,
2013-04-06 08:45:00,36.0,16.7,30.26,SSE,152,6.0,9.0,45,0.00,,,0.00,Wunderground v.1.15,2013-04-06 12:45:00,
2013-04-06 08:50:00,36.0,16.2,30.26,SSE,155,6.0,7.0,44,0.00,,,0.00,Wunderground v.1.15,2013-04-06 12:50:00,
2013-04-06 08:55:00,36.1,15.7,30.26,South,170,7.0,7.0,43,0.00,,,0.00,Wunderground v.1.15,2013-04-06 12:55:00,
2013-04-06 09:00:00,36.2,16.4,30.26,SSW,205,7.0,7.0,44,0.00,,,0.00,Wunderground v.1.15,2013-04-06 13:00:00,
2013-04-06 09:10:00,36.2,15.8,30.26,SSE,162,9.0,9.0,43,0.00,,,0.00,Wunderground v.1.15,2013-04-06 13:10:00,
2013-04-06 09:20:00,36.7,15.7,30.26,SSE,159,8.0,9.0,42,0.00,,,0.00,Wunderground v.1.15,2013-04-06 13:20:00,
2013-04-06 09:25:00,36.6,15.1,30.26,SE,143,8.0,11.0,41,0.00,,,0.00,Wunderground v.1.15,2013-04-06 13:25:00,
2013-04-06 09:30:00,37.0,16.0,30.26,SSE,159,8.0,8.0,42,0.00,,,0.00,Wunderground v.1.15,2013-04-06 13:30:00,
2013-04-06 09:40:00,37.3,15.2,30.27,South,181,7.0,7.0,40,0.00,,,0.00,Wunderground v.1.15,2013-04-06 13:40:00,
2013-04-06 09:45:00,36.9,15.9,30.26,SSE,148,8.0,8.0,42,0.00,,,0.00,Wunderground v.1.15,2013-04-06 13:45:00,
2013-04-06 09:50:00,37.4,15.8,30.26,SW,233,7.0,9.0,41,0.00,,,0.00,Wunderground v.1.15,2013-04-06 13:50:00,
2013-04-06 09:55:00,37.2,16.2,30.27,SSW,203,7.0,9.0,42,0.00,,,0.00,Wunderground v.1.15,2013-04-06 13:55:00,
2013-04-06 10:00:00,37.9,16.8,30.27,SSE,165,6.0,6.0,42,0.00,,,0.00,Wunderground v.1.15,2013-04-06 14:00:00,
2013-04-06 10:10:00,37.9,16.8,30.27,SSE,148,6.0,8.0,42,0.00,,,0.00,Wunderground v.1.15,2013-04-06 14:10:00,
2013-04-06 10:15:00,38.0,15.8,30.28,SE,134,6.0,8.0,40,0.00,,,0.00,Wunderground v.1.15,2013-04-06 14:15:00,
2013-04-06 10:20:00,38.1,15.9,30.28,SE,137,7.0,7.0,40,0.00,,,0.00,Wunderground v.1.15,2013-04-06 14:20:00,
2013-04-06 10:25:00,38.3,16.1,30.27,ESE,113,6.0,9.0,40,0.00,,,0.00,Wunderground v.1.15,2013-04-06 14:25:00,
2013-04-06 10:30:00,38.6,16.3,30.27,SW,226,5.0,7.0,40,0.00,,,0.00,Wunderground v.1.15,2013-04-06 14:30:00,
2013-04-06 10:40:00,39.1,16.8,30.28,SSE,155,6.0,6.0,40,0.00,,,0.00,Wunderground v.1.15,2013-04-06 14:40:00,
2013-04-06 10:45:00,39.3,16.4,30.28,SE,137,6.0,7.0,39,0.00,,,0.00,Wunderground v.1.15,2013-04-06 14:45:00,
2013-04-06 10:50:00,39.7,17.9,30.28,SSW,209,5.0,5.0,41,0.00,,,0.00,Wunderground v.1.15,2013-04-06 14:50:00,
2013-04-06 11:00:00,39.7,16.7,30.28,SE,136,4.0,7.0,39,0.00,,,0.00,Wunderground v.1.15,2013-04-06 15:00:00,
2013-04-06 11:10:00,40.0,16.4,30.28,ESE,108,7.0,7.0,38,0.00,,,0.00,Wunderground v.1.15,2013-04-06 15:10:00,
2013-04-06 11:15:00,40.4,16.1,30.28,SE,131,4.0,7.0,37,0.00,,,0.00,Wunderground v.1.15,2013-04-06 15:15:00,
2013-04-06 11:25:00,40.5,16.2,30.28,SSW,205,8.0,9.0,37,0.00,,,0.00,Wunderground v.1.15,2013-04-06 15:25:00,
2013-04-06 11:30:00,40.0,16.4,30.28,West,267,6.0,6.0,38,0.00,,,0.00,Wunderground v.1.15,2013-04-06 15:30:00,
2013-04-06 11:35:00,40.5,18.6,30.28,SSW,207,5.0,9.0,41,0.00,,,0.00,Wunderground v.1.15,2013-04-06 15:35:00,
2013-04-06 11:40:00,40.7,17.0,30.28,South,174,6.0,6.0,38,0.00,,,0.00,Wunderground v.1.15,2013-04-06 15:40:00,
2013-04-06 11:45:00,41.1,16.1,30.28,SSW,193,7.0,8.0,36,0.00,,,0.00,Wunderground v.1.15,2013-04-06 15:45:00,
2013-04-06 11:55:00,41.7,16.7,30.28,SE,137,6.0,7.0,36,0.00,,,0.00,Wunderground v.1.15,2013-04-06 15:55:00,
2013-04-06 12:00:00,42.3,18.5,30.28,ESE,120,4.0,7.0,38,0.00,,,0.00,Wunderground v.1.15,2013-04-06 16:00:00,
2013-04-06 12:10:00,42.5,16.7,30.28,South,188,4.0,4.0,35,0.00,,,0.00,Wunderground v.1.15,2013-04-06 16:10:00,
2013-04-06 12:15:00,42.9,17.1,30.27,South,184,4.0,7.0,35,0.00,,,0.00,Wunderground v.1.15,2013-04-06 16:15:00,
2013-04-06 12:20:00,43.3,18.1,30.27,SSW,210,3.0,7.0,36,0.00,,,0.00,Wunderground v.1.15,2013-04-06 16:20:00,
2013-04-06 12:25:00,43.8,16.5,30.27,SE,134,4.0,7.0,33,0.00,,,0.00,Wunderground v.1.15,2013-04-06 16:25:00,
2013-04-06 12:30:00,43.3,16.8,30.27,SE,139,5.0,5.0,34,0.00,,,0.00,Wunderground v.1.15,2013-04-06 16:30:00,
2013-04-06 12:40:00,43.6,17.0,30.26,SSE,161,5.0,7.0,34,0.00,,,0.00,Wunderground v.1.15,2013-04-06 16:40:00,
2013-04-06 12:45:00,43.7,16.4,30.26,SE,136,6.0,7.0,33,0.00,,,0.00,Wunderground v.1.15,2013-04-06 16:45:00,
2013-04-06 12:50:00,44.0,17.4,30.26,ESE,117,6.0,6.0,34,0.00,,,0.00,Wunderground v.1.15,2013-04-06 16:50:00,
2013-04-06 13:00:00,44.7,18.0,30.26,South,185,6.0,6.0,34,0.00,,,0.00,Wunderground v.1.15,2013-04-06 17:00:00,
2013-04-06 13:15:00,45.4,16.5,30.26,SSE,160,4.0,7.0,31,0.00,,,0.00,Wunderground v.1.15,2013-04-06 17:15:00,
2013-04-06 13:25:00,45.5,17.3,30.26,NE,49,3.0,5.0,32,0.00,,,0.00,Wunderground v.1.15,2013-04-06 17:25:00,
2013-04-06 13:30:00,45.9,18.4,30.25,East,91,4.0,7.0,33,0.00,,,0.00,Wunderground v.1.15,2013-04-06 17:30:00,
2013-04-06 13:35:00,46.0,17.0,30.25,NNE,18,5.0,7.0,31,0.00,,,0.00,Wunderground v.1.15,2013-04-06 17:35:00,
2013-04-06 13:40:00,46.1,17.1,30.25,NE,54,5.0,5.0,31,0.00,,,0.00,Wunderground v.1.15,2013-04-06 17:40:00,
2013-04-06 13:50:00,47.1,18.7,30.25,SSW,197,4.0,7.0,32,0.00,,,0.00,Wunderground v.1.15,2013-04-06 17:50:00,
2013-04-06 13:55:00,47.2,16.5,30.25,SE,143,3.0,7.0,29,0.00,,,0.00,Wunderground v.1.15,2013-04-06 17:55:00,
2013-04-06 14:00:00,47.2,23.5,30.25,East,91,3.0,7.0,39,0.00,,,0.00,Wunderground v.1.15,2013-04-06 18:00:00,
2013-04-06 14:10:00,48.0,18.8,30.25,WSW,240,2.0,7.0,31,0.00,,,0.00,Wunderground v.1.15,2013-04-06 18:10:00,
2013-04-06 14:25:00,47.6,17.6,30.25,NE,35,5.0,7.0,30,0.00,,,0.00,Wunderground v.1.15,2013-04-06 18:25:00,
2013-04-06 14:30:00,47.7,17.7,30.25,SSW,210,6.0,6.0,30,0.00,,,0.00,Wunderground v.1.15,2013-04-06 18:30:00,
2013-04-06 14:35:00,48.4,23.3,30.25,ESE,113,3.0,9.0,37,0.00,,,0.00,Wunderground v.1.15,2013-04-06 18:35:00,
2013-04-06 14:40:00,48.2,18.2,30.24,NE,52,3.0,8.0,30,0.00,,,0.00,Wunderground v.1.15,2013-04-06 18:40:00,
2013-04-06 14:50:00,48.3,19.0,30.24,NNW,330,5.0,5.0,31,0.00,,,0.00,Wunderground v.1.15,2013-04-06 18:50:00,
2013-04-06 14:55:00,48.8,19.5,30.24,NNW,329,2.0,7.0,31,0.00,,,0.00,Wunderground v.1.15,2013-04-06 18:55:00,
2013-04-06 15:00:00,49.3,18.3,30.24,NE,41,4.0,7.0,29,0.00,,,0.00,Wunderground v.1.15,2013-04-06 19:00:00,
2013-04-06 15:10:00,49.2,19.8,30.24,NE,47,4.0,11.0,31,0.00,,,0.00,Wunderground v.1.15,2013-04-06 19:10:00,
2013-04-06 15:15:00,48.9,19.5,30.23,NE,52,5.0,11.0,31,0.00,,,0.00,Wunderground v.1.15,2013-04-06 19:15:00,
2013-04-06 15:25:00,49.1,19.0,30.23,NE,51,8.0,8.0,30,0.00,,,0.00,Wunderground v.1.15,2013-04-06 19:25:00,
2013-04-06 15:30:00,49.2,19.0,30.22,ENE,61,7.0,7.0,30,0.00,,,0.00,Wunderground v.1.15,2013-04-06 19:30:00,
2013-04-06 15:35:00,49.2,19.0,30.22,NNW,335,6.0,7.0,30,0.00,,,0.00,Wunderground v.1.15,2013-04-06 19:35:00,
2013-04-06 15:40:00,49.5,19.3,30.22,NNW,336,6.0,11.0,30,0.00,,,0.00,Wunderground v.1.15,2013-04-06 19:40:00,
2013-04-06 15:45:00,49.5,19.3,30.22,NE,48,8.0,11.0,30,0.00,,,0.00,Wunderground v.1.15,2013-04-06 19:45:00,
2013-04-06 15:55:00,49.5,19.3,30.22,East,86,6.0,9.0,30,0.00,,,0.00,Wunderground v.1.15,2013-04-06 19:55:00,
2013-04-06 16:00:00,49.2,19.0,30.22,SE,132,5.0,5.0,30,0.00,,,0.00,Wunderground v.1.15,2013-04-06 20:00:00,
2013-04-06 16:10:00,49.9,20.4,30.22,ENE,63,3.0,7.0,31,0.00,,,0.00,Wunderground v.1.15,2013-04-06 20:10:00,
2013-04-06 16:20:00,50.3,20.0,30.22,East,101,3.0,3.0,30,0.00,,,0.00,Wunderground v.1.15,2013-04-06 20:20:00,
2013-04-06 16:30:00,50.5,20.2,30.22,NE,44,2.0,8.0,30,0.00,,,0.00,Wunderground v.1.15,2013-04-06 20:30:00,
2013-04-06 16:35:00,50.6,19.5,30.22,NNW,345,4.0,8.0,29,0.00,,,0.00,Wunderground v.1.15,2013-04-06 20:35:00,
2013-04-06 16:40:00,50.5,18.6,30.22,ENE,72,5.0,5.0,28,0.00,,,0.00,Wunderground v.1.15,2013-04-06 20:40:00,
2013-04-06 16:45:00,50.5,19.4,30.22,ENE,77,4.0,7.0,29,0.00,,,0.00,Wunderground v.1.15,2013-04-06 20:45:00,
2013-04-06 16:50:00,50.7,18.7,30.22,NE,37,3.0,7.0,28,0.00,,,0.00,Wunderground v.1.15,2013-04-06 20:50:00,
2013-04-06 16:55:00,50.8,19.6,30.22,ENE,70,4.0,7.0,29,0.00,,,0.00,Wunderground v.1.15,2013-04-06 20:55:00,
2013-04-06 17:00:00,50.8,19.6,30.21,North,8,4.0,4.0,29,0.00,,,0.00,Wunderground v.1.15,2013-04-06 21:00:00,
2013-04-06 17:10:00,50.9,18.1,30.21,NE,37,5.0,7.0,27,0.00,,,0.00,Wunderground v.1.15,2013-04-06 21:10:00,
2013-04-06 17:15:00,50.8,18.0,30.21,NE,39,5.0,7.0,27,0.00,,,0.00,Wunderground v.1.15,2013-04-06 21:15:00,
2013-04-06 17:20:00,50.9,18.9,30.21,North,8,5.0,7.0,28,0.00,,,0.00,Wunderground v.1.15,2013-04-06 21:20:00,
2013-04-06 17:25:00,51.0,19.8,30.22,NNW,345,6.0,7.0,29,0.00,,,0.00,Wunderground v.1.15,2013-04-06 21:25:00,
2013-04-06 17:35:00,50.5,18.6,30.21,NW,316,3.0,7.0,28,0.00,,,0.00,Wunderground v.1.15,2013-04-06 21:35:00,
2013-04-06 17:45:00,51.0,18.1,30.22,NE,41,4.0,7.0,27,0.00,,,0.00,Wunderground v.1.15,2013-04-06 21:45:00,
2013-04-06 17:50:00,50.8,18.0,30.22,NE,56,6.0,6.0,27,0.00,,,0.00,Wunderground v.1.15,2013-04-06 21:50:00,
2013-04-06 17:55:00,51.2,18.3,30.22,NE,50,5.0,7.0,27,0.00,,,0.00,Wunderground v.1.15,2013-04-06 21:55:00,
2013-04-06 18:00:00,51.3,19.3,30.22,ENE,60,3.0,7.0,28,0.00,,,0.00,Wunderground v.1.15,2013-04-06 22:00:00,
2013-04-06 18:10:00,51.1,18.2,30.22,NNE,30,5.0,7.0,27,0.00,,,0.00,Wunderground v.1.15,2013-04-06 22:10:00,
2013-04-06 18:20:00,50.9,18.1,30.22,NE,50,5.0,5.0,27,0.00,,,0.00,Wunderground v.1.15,2013-04-06 22:20:00,
2013-04-06 18:30:00,50.9,18.1,30.22,NE,39,3.0,7.0,27,0.00,,,0.00,Wunderground v.1.15,2013-04-06 22:30:00,
2013-04-06 18:35:00,51.0,18.1,30.22,North,360,3.0,7.0,27,0.00,,,0.00,Wunderground v.1.15,2013-04-06 22:35:00,
2013-04-06 18:45:00,50.8,17.1,30.22,NE,41,4.0,7.0,26,0.00,,,0.00,Wunderground v.1.15,2013-04-06 22:45:00,
2013-04-06 18:50:00,50.6,17.8,30.22,NNE,20,3.0,3.0,27,0.00,,,0.00,Wunderground v.1.15,2013-04-06 22:50:00,
2013-04-06 18:55:00,50.6,17.8,30.22,NE,34,2.0,7.0,27,0.00,,,0.00,Wunderground v.1.15,2013-04-06 22:55:00,
2013-04-06 19:00:00,50.5,17.7,30.22,NE,35,1.0,1.0,27,0.00,,,0.00,Wunderground v.1.15,2013-04-06 23:00:00,
2013-04-06 19:10:00,50.1,17.4,30.22,NNW,345,2.0,7.0,27,0.00,,,0.00,Wunderground v.1.15,2013-04-06 23:10:00,
2013-04-06 19:20:00,49.4,17.6,30.22,NE,49,3.0,3.0,28,0.00,,,0.00,Wunderground v.1.15,2013-04-06 23:20:00,
2013-04-06 19:25:00,49.2,17.4,30.22,NNE,22,2.0,7.0,28,0.00,,,0.00,Wunderground v.1.15,2013-04-06 23:25:00,
2013-04-06 19:30:00,48.9,18.0,30.22,NNE,15,2.0,7.0,29,0.00,,,0.00,Wunderground v.1.15,2013-04-06 23:30:00,
2013-04-06 19:40:00,48.3,17.5,30.22,West,280,1.0,1.0,29,0.00,,,0.00,Wunderground v.1.15,2013-04-06 23:40:00,
2013-04-06 19:50:00,47.8,17.8,30.22,West,264,0.0,7.0,30,0.00,,,0.00,Wunderground v.1.15,2013-04-06 23:50:00,
2013-04-06 20:00:00,47.5,16.8,30.22,WSW,256,1.0,7.0,29,0.00,,,0.00,Wunderground v.1.15,2013-04-07 00:00:00,
2013-04-06 20:10:00,47.2,17.3,30.22,WSW,255,1.0,1.0,30,0.00,,,0.00,Wunderground v.1.15,2013-04-07 00:10:00,
2013-04-06 20:15:00,46.9,17.8,30.22,WSW,255,0.0,7.0,31,0.00,,,0.00,Wunderground v.1.15,2013-04-07 00:15:00,
2013-04-06 20:20:00,46.5,18.2,30.22,SW,229,0.0,7.0,32,0.00,,,0.00,Wunderground v.1.15,2013-04-07 00:20:00,
2013-04-06 20:30:00,45.5,19.4,30.22,SW,219,0.0,7.0,35,0.00,,,0.00,Wunderground v.1.15,2013-04-07 00:30:00,
2013-04-06 20:35:00,44.8,19.4,30.22,SW,219,0.0,7.0,36,0.00,,,0.00,Wunderground v.1.15,2013-04-07 00:35:00,
2013-04-06 20:40:00,44.3,19.6,30.22,SW,231,0.0,7.0,37,0.00,,,0.00,Wunderground v.1.15,2013-04-07 00:40:00,
2013-04-06 20:45:00,44.5,19.2,30.22,SW,231,0.0,7.0,36,0.00,,,0.00,Wunderground v.1.15,2013-04-07 00:45:00,
2013-04-06 20:55:00,44.1,20.7,30.23,SW,231,0.0,7.0,39,0.00,,,0.00,Wunderground v.1.15,2013-04-07 00:55:00,
2013-04-06 21:05:00,43.5,21.3,30.23,SW,226,0.0,7.0,41,0.00,,,0.00,Wunderground v.1.15,2013-04-07 01:05:00,
2013-04-06 21:10:00,43.2,22.2,30.23,SW,226,0.0,7.0,43,0.00,,,0.00,Wunderground v.1.15,2013-04-07 01:10:00,
2013-04-06 21:20:00,43.0,21.4,30.23,SW,226,0.0,7.0,42,0.00,,,0.00,Wunderground v.1.15,2013-04-07 01:20:00,
2013-04-06 21:30:00,42.5,22.1,30.24,WSW,242,0.0,7.0,44,0.00,,,0.00,Wunderground v.1.15,2013-04-07 01:30:00,
2013-04-06 21:35:00,42.5,21.0,30.23,WNW,296,1.0,7.0,42,0.00,,,0.00,Wunderground v.1.15,2013-04-07 01:35:00,
2013-04-06 21:40:00,43.3,20.6,30.23,NNW,329,3.0,7.0,40,0.00,,,0.00,Wunderground v.1.15,2013-04-07 01:40:00,
2013-04-06 21:45:00,43.8,21.0,30.23,WNW,287,3.0,7.0,40,0.00,,,0.00,Wunderground v.1.15,2013-04-07 01:45:00,
2013-04-06 21:50:00,43.9,21.1,30.23,WNW,283,3.0,7.0,40,0.00,,,0.00,Wunderground v.1.15,2013-04-07 01:50:00,
2013-04-06 21:55:00,43.6,21.4,30.23,WNW,288,3.0,7.0,41,0.00,,,0.00,Wunderground v.1.15,2013-04-07 01:55:00,
2013-04-06 22:00:00,43.3,21.7,30.23,WNW,300,3.0,3.0,42,0.00,,,0.00,Wunderground v.1.15,2013-04-07 02:00:00,
2013-04-06 22:10:00,43.3,21.7,30.23,WNW,300,3.0,7.0,42,0.00,,,0.00,Wunderground v.1.15,2013-04-07 02:10:00,
2013-04-06 22:15:00,43.4,22.4,30.23,WNW,297,3.0,7.0,43,0.00,,,0.00,Wunderground v.1.15,2013-04-07 02:15:00,
2013-04-06 22:25:00,43.6,22.5,30.23,NW,315,3.0,7.0,43,0.00,,,0.00,Wunderground v.1.15,2013-04-07 02:25:00,
2013-04-06 22:35:00,43.5,22.5,30.23,NW,307,4.0,7.0,43,0.00,,,0.00,Wunderground v.1.15,2013-04-07 02:35:00,
2013-04-06 22:45:00,43.7,22.6,30.23,NNW,338,4.0,7.0,43,0.00,,,0.00,Wunderground v.1.15,2013-04-07 02:45:00,
2013-04-06 22:50:00,43.8,22.7,30.23,NNW,341,3.0,3.0,43,0.00,,,0.00,Wunderground v.1.15,2013-04-07 02:50:00,
2013-04-06 22:55:00,43.8,23.3,30.22,NNW,338,3.0,7.0,44,0.00,,,0.00,Wunderground v.1.15,2013-04-07 02:55:00,
2013-04-06 23:00:00,43.7,23.2,30.22,NW,315,2.0,7.0,44,0.00,,,0.00,Wunderground v.1.15,2013-04-07 03:00:00,
2013-04-06 23:10:00,43.8,22.7,30.22,NNW,328,3.0,7.0,43,0.00,,,0.00,Wunderground v.1.15,2013-04-07 03:10:00,
2013-04-06 23:20:00,43.9,22.3,30.23,NW,316,3.0,3.0,42,0.00,,,0.00,Wunderground v.1.15,2013-04-07 03:20:00,
2013-04-06 23:30:00,43.9,22.8,30.23,NW,316,2.0,2.0,43,0.00,,,0.00,Wunderground v.1.15,2013-04-07 03:30:00,
2013-04-06 23:35:00,43.7,22.6,30.23,NNE,23,2.0,7.0,43,0.00,,,0.00,Wunderground v.1.15,2013-04-07 03:35:00,
2013-04-06 23:40:00,43.7,23.2,30.23,NNW,328,2.0,7.0,44,0.00,,,0.00,Wunderground v.1.15,2013-04-07 03:40:00,
2013-04-06 23:50:00,43.5,23.0,30.23,NNW,348,4.0,7.0,44,0.00,,,0.00,Wunderground v.1.15,2013-04-07 03:50:00,
2013-04-06 23:55:00,43.6,23.6,30.23,NNW,347,6.0,7.0,45,0.00,,,0.00,Wunderground v.1.15,2013-04-07 03:55:00,